Location: Paris
(48.6709°N, 2.3750°E)
Time: 13:15:18
(UTC+02:00)

Gurwin Techsat 1B - Pass Details

Date: 29 June 2022
Orbit: 812 x 813 km, 98.8° (Epoch: 07 August)

Event Time Altitude Azimuth Distance (km) Brightness Sun altitude
Rises 03:05:39 0° 29° (NNE) 3,346 13.5 -16.3°
Reaches altitude 10° 03:08:54 10° 49° (NE) 2,408 12.0 -16.2°
Maximum altitude 03:12:14 17° 89° (E) 1,970 10.9 -16.0°
Drops below altitude 10° 03:15:35 10° 128° (SE) 2,397 10.9 -15.8°
Enters shadow 03:17:36 - 142° (SE) 2,949 11.2 -15.7°
